User: anonymous   Login
Location: Caltech
(34.1382°N, 118.1253°W)
Time: 20:29:36
(UTC-07:00)
Language:

JAS-2 - Orbit

View from above orbital plane
View from above orbital plane
View from above satellite
View from above satellite

Ground track
Ground track

The orbit data is extracted from the following two-line orbital elements,

1 24278U 96046B   15180.86394958 -.00000001  00000-0  33840-4 0  9999
2 24278 098.5412 147.9407 0351199 038.0896 352.3566 13.53054086931747
Epoch (UTC): 29 June 2015 20:44:05
Eccentricity: 0.0351199
inclination: 98.5412°
perigee height: 800 km
apogee height: 1322 km
right ascension of ascending node: 147.9407°
argument of perigee: 38.0896°
revolutions per day: 13.53054086
mean anomaly at epoch: 352.3566°
orbit number at epoch: 93174

The dashed part of the orbit path shows where the satellite is in the earth's shadow,  

DLR